THOR BURNER 2 R/B, 2741

Orbit data source: Space-Track

THOR BURNER 2 R/B, 2741 is space debris in SSO originally from a launch on Wed, 08 Feb 1967 UTC launched from the Air Force Western Test Range (AFWTR). Debris objects in space refer to the collection of defunct objects orbiting the Earth. Examples of debris include non-operational satellites, rocket bodies, and fragments generated from explosions, collisions, or faulty payload assembly.

Loading next visibility...
Identifier
2741, 1967-010B
Orbit
SSO
Country
Flag of USUS
Related business
Manufacturer
Thiokol/TE
Mission
Spacecraft
Bus & Motor
STAR 37, Unknown motor
Mass
136 kg wet, 136 kg dry
Launch date (UTC)
1967-02-08 (59 years ago)
Launch vehicle
Unknown
Launch site
Air Force Western Test Range (AFWTR)
Object type
Payload
Rocket body
Debris
Shape & HBR
Unknown
Radar Cross Section
Large (>1 m²)

Expand to show TLE details & history
Last TLE update: 12 hours ago

TLE from 12 hours ago
0 THOR BURNER 2 R/B
1  2741U 67010B   26131.10084838  .00000114  00000-0  62347-4 0  9995
2  2741  98.9724  83.8651 0053159  33.8609 326.5947 14.29235590 79976
Epoch: 2026-05-11T02:25Z
TLE epoch observation values (Epoch: 2026-05-11T02:25:13.300Z)
Latitude
-0.00003°
Longitude
178.66527°
Altitude
765.432 km
Speed
7.488 km/s
True Right ascension
05h 35m 27s
True Declination
0° 00' 00"
Sunlit
Object was in daylight at epoch
Visualization orbit readout
Latitude
Unknown
Longitude
Unknown
Altitude
Unknown
Speed
Unknown
Apparent Right ascension
Unknown
Apparent Declination
Unknown
Sunlit
N/A
Visualization observer readout
Local Sidereal Time
22:46:40
Azimuth
Unknown
Elevation
Unknown
Doppler factor
Unknown
Orbital elements
Apogee altitude
829.559 km
Perigee altitude
753.333 km
Semi-major axis
7,169.583 km
Eccentricity
0.00532
Inclination
98.9724°
RAAN
83.8651°
Arg. of periapsis
33.8609°
True anomaly
326.25746°
Mean anomaly
326.5947°
Eccentric anomaly
326.42627°
Mean motion
3.57522 °/min
Orbital period
100.69 mins
BSTAR
0.000062347
Loading maneuver chart data...
Computing Atmospheric mass density...
Loading historical data...
Loading historical data...
Loading historical data...
Loading historical data...
Loading historical data...
Loading historical data...
Loading historical data...
Other satellites on launch #10 in the year 1967 (1967-02-08 UTC)

Documentation

Showing up to 5 results
|